When you browse on this site, cookies collect data to enhance your experience and personalize the content and advertising you see.
Visit our Privacy Policy to learn more. By continuing to use the site, you agree to this use of cookies and data.
  • în România
  • Lista ţărilor
  • Pe 7 zile
  • Temperatura apei
  • Hartă satelitară
  • Meteo pe hartă
  • Widget-uri
  • user-avatar
    Intrare

    Meteo pe oră la Igumnovo

    Astăzi, 23 Iulie, Marţi

    Timp Temperatura Precipitaţii Vânt Presiune Umiditate
    00:00 +17°C° 0 mm 2 m/s 743 mmHg 85%
    01:00 +17°C° 0 mm 2 m/s 743 mmHg 87%
    02:00 +16°C° 0 mm 2 m/s 743 mmHg 88%
    03:00 +16°C° 0 mm 2 m/s 743 mmHg 90%
    04:00 +16°C° 0.4 mm 2 m/s 743 mmHg 91%
    05:00 +18°C° 0.4 mm 1 m/s 742 mmHg 93%
    06:00 +18°C° 0.4 mm 1 m/s 742 mmHg 95%
    07:00 +17°C° 0.5 mm 2 m/s 742 mmHg 94%
    08:00 +17°C° 0.5 mm 3 m/s 742 mmHg 94%
    09:00 +17°C° 0.5 mm 4 m/s 742 mmHg 93%
    10:00 +17°C° 0.1 mm 5 m/s 742 mmHg 91%
    11:00 +19°C° 0.1 mm 5 m/s 742 mmHg 89%
    12:00 +19°C° 0.1 mm 5 m/s 742 mmHg 88%
    13:00 +20°C° 0.5 mm 5 m/s 742 mmHg 86%
    14:00 +21°C° 0.5 mm 5 m/s 741 mmHg 84%
    15:00 +22°C° 0.5 mm 4 m/s 741 mmHg 82%
    16:00 +22°C° 0.8 mm 4 m/s 741 mmHg 83%
    17:00 +22°C° 0.8 mm 3 m/s 741 mmHg 83%
    18:00 +22°C° 0.8 mm 3 m/s 741 mmHg 84%
    19:00 +21°C° 0.1 mm 2 m/s 741 mmHg 87%
    20:00 +19°C° 0.1 mm 2 m/s 741 mmHg 90%
    21:00 +18°C° 0.1 mm 2 m/s 741 mmHg 93%
    22:00 +18°C° 0.1 mm 2 m/s 741 mmHg 93%
    23:00 +18°C° 0.1 mm 1 m/s 741 mmHg 93%

    Mâine, 24 Iulie, Miercuri

    Timp Temperatura Precipitaţii Vânt Presiune Umiditate
    00:00 +18°C° 0.1 mm 1 m/s 741 mmHg 93%
    01:00 +16°C° 0 mm 1 m/s 741 mmHg 93%
    02:00 +16°C° 0 mm 1 m/s 741 mmHg 92%
    03:00 +15°C° 0 mm 0 m/s 741 mmHg 92%
    04:00 +15°C° 0.1 mm 0 m/s 741 mmHg 92%
    05:00 +16°C° 0.1 mm 0 m/s 741 mmHg 92%
    06:00 +16°C° 0.1 mm 0 m/s 741 mmHg 92%
    07:00 +19°C° 0.2 mm 1 m/s 741 mmHg 92%
    08:00 +19°C° 0.2 mm 1 m/s 741 mmHg 92%
    09:00 +19°C° 0.2 mm 2 m/s 741 mmHg 92%
    10:00 +19°C° 0.7 mm 2 m/s 741 mmHg 89%
    11:00 +20°C° 0.7 mm 2 m/s 741 mmHg 86%
    12:00 +21°C° 0.7 mm 2 m/s 741 mmHg 84%
    13:00 +21°C° 0.6 mm 2 m/s 741 mmHg 84%
    14:00 +22°C° 0.6 mm 1 m/s 741 mmHg 83%
    15:00 +21°C° 0.6 mm 1 m/s 741 mmHg 83%
    16:00 +20°C° 1.7 mm 2 m/s 741 mmHg 86%
    17:00 +20°C° 1.7 mm 3 m/s 741 mmHg 89%
    18:00 +19°C° 1.7 mm 4 m/s 741 mmHg 92%
    19:00 +19°C° 1.1 mm 4 m/s 741 mmHg 93%
    20:00 +18°C° 1.1 mm 4 m/s 741 mmHg 94%
    21:00 +17°C° 1.1 mm 4 m/s 741 mmHg 95%
    22:00 +17°C° 0.5 mm 3 m/s 741 mmHg 96%
    23:00 +17°C° 0.5 mm 3 m/s 741 mmHg 97%

    Poimâine, 25 Iulie, Joi

    Timp Temperatura Precipitaţii Vânt Presiune Umiditate
    00:00 +17°C° 0.5 mm 3 m/s 742 mmHg 97%
    01:00 +17°C° 0.1 mm 3 m/s 742 mmHg 97%
    02:00 +17°C° 0.1 mm 3 m/s 742 mmHg 97%
    03:00 +17°C° 0.1 mm 3 m/s 742 mmHg 98%
    04:00 +17°C° 0 mm 3 m/s 742 mmHg 97%
    05:00 +17°C° 0 mm 3 m/s 742 mmHg 96%
    06:00 +17°C° 0 mm 3 m/s 742 mmHg 96%
    07:00 +18°C° 0 mm 3 m/s 742 mmHg 94%
    08:00 +18°C° 0 mm 3 m/s 742 mmHg 92%
    09:00 +19°C° 0 mm 4 m/s 743 mmHg 89%
    10:00 +19°C° 0.5 mm 4 m/s 743 mmHg 88%
    11:00 +20°C° 0.5 mm 4 m/s 743 mmHg 86%
    12:00 +21°C° 0.5 mm 5 m/s 743 mmHg 85%
    13:00 +21°C° 1.1 mm 5 m/s 743 mmHg 84%
    14:00 +21°C° 1.1 mm 6 m/s 743 mmHg 83%
    15:00 +21°C° 1.1 mm 7 m/s 743 mmHg 83%
    16:00 +20°C° 0.5 mm 6 m/s 743 mmHg 86%
    17:00 +19°C° 0.5 mm 5 m/s 743 mmHg 90%
    18:00 +18°C° 0.5 mm 4 m/s 743 mmHg 94%
    19:00 +18°C° 0.6 mm 4 m/s 744 mmHg 95%
    20:00 +18°C° 0.6 mm 4 m/s 744 mmHg 96%
    21:00 +18°C° 0.6 mm 4 m/s 744 mmHg 97%
    22:00 +18°C° 0.4 mm 3 m/s 744 mmHg 96%
    23:00 +18°C° 0.4 mm 3 m/s 744 mmHg 96%

    26 Iulie, Vineri

    Timp Temperatura Precipitaţii Vânt Presiune Umiditate
    00:00 +17°C° 0.4 mm 2 m/s 744 mmHg 96%
    01:00 +17°C° 0 mm 2 m/s 744 mmHg 96%
    02:00 +17°C° 0 mm 2 m/s 744 mmHg 96%
    03:00 +17°C° 0 mm 2 m/s 744 mmHg 95%
    04:00 +17°C° 0 mm 3 m/s 744 mmHg 96%
    05:00 +17°C° 0 mm 4 m/s 744 mmHg 96%
    06:00 +17°C° 0 mm 4 m/s 744 mmHg 96%
    07:00 +19°C° 0 mm 5 m/s 744 mmHg 93%
    08:00 +20°C° 0 mm 5 m/s 744 mmHg 90%
    09:00 +21°C° 0 mm 6 m/s 744 mmHg 87%
    10:00 +22°C° 0.4 mm 6 m/s 744 mmHg 83%
    11:00 +23°C° 0.4 mm 6 m/s 744 mmHg 79%
    12:00 +24°C° 0.4 mm 6 m/s 744 mmHg 75%
    13:00 +24°C° 0.3 mm 6 m/s 744 mmHg 73%
    14:00 +26°C° 0.3 mm 6 m/s 744 mmHg 71%
    15:00 +26°C° 0.3 mm 6 m/s 743 mmHg 69%
    16:00 +26°C° 0.1 mm 5 m/s 743 mmHg 71%
    17:00 +26°C° 0.1 mm 4 m/s 743 mmHg 74%
    18:00 +26°C° 0.1 mm 4 m/s 743 mmHg 76%
    19:00 +23°C° 0 mm 4 m/s 743 mmHg 78%
    20:00 +22°C° 0 mm 4 m/s 744 mmHg 79%
    21:00 +20°C° 0 mm 4 m/s 744 mmHg 81%
    22:00 +20°C° 0.1 mm 4 m/s 744 mmHg 84%
    23:00 +19°C° 0.1 mm 4 m/s 744 mmHg 88%

    27 Iulie, Sâmbătă

    Timp Temperatura Precipitaţii Vânt Presiune Umiditate
    00:00 +18°C° 0.1 mm 3 m/s 743 mmHg 91%
    01:00 +18°C° 0 mm 3 m/s 743 mmHg 92%
    02:00 +18°C° 0 mm 3 m/s 743 mmHg 94%
    03:00 +17°C° 0 mm 3 m/s 743 mmHg 95%
    04:00 +17°C° 0 mm 4 m/s 743 mmHg 95%
    05:00 +17°C° 0 mm 4 m/s 743 mmHg 95%
    06:00 +18°C° 0 mm 4 m/s 743 mmHg 95%
    07:00 +19°C° 0 mm 4 m/s 743 mmHg 91%
    08:00 +20°C° 0 mm 4 m/s 743 mmHg 87%
    09:00 +22°C° 0 mm 4 m/s 743 mmHg 83%
    10:00 +23°C° 0.1 mm 4 m/s 743 mmHg 79%
    11:00 +25°C° 0.1 mm 5 m/s 743 mmHg 75%
    12:00 +25°C° 0.1 mm 5 m/s 742 mmHg 71%
    13:00 +26°C° 0.1 mm 5 m/s 742 mmHg 68%
    14:00 +27°C° 0.1 mm 5 m/s 742 mmHg 65%
    15:00 +27°C° 0.1 mm 5 m/s 741 mmHg 63%
    16:00 +27°C° 0.3 mm 4 m/s 741 mmHg 67%
    17:00 +26°C° 0.3 mm 4 m/s 741 mmHg 72%
    18:00 +26°C° 0.3 mm 3 m/s 740 mmHg 77%
    19:00 +24°C° 0.1 mm 3 m/s 740 mmHg 81%
    20:00 +21°C° 0.1 mm 3 m/s 740 mmHg 85%
    21:00 +20°C° 0.1 mm 3 m/s 740 mmHg 88%
    22:00 +19°C° 0 mm 3 m/s 740 mmHg 90%
    23:00 +19°C° 0 mm 3 m/s 740 mmHg 91%

    28 Iulie, Duminică

    Timp Temperatura Precipitaţii Vânt Presiune Umiditate
    00:00 +18°C° 0 mm 3 m/s 739 mmHg 93%
    01:00 +18°C° 0 mm 3 m/s 739 mmHg 93%
    02:00 +17°C° 0 mm 3 m/s 738 mmHg 93%
    03:00 +17°C° 0 mm 3 m/s 738 mmHg 93%
    04:00 +17°C° 0.3 mm 4 m/s 738 mmHg 94%
    05:00 +17°C° 0.3 mm 5 m/s 737 mmHg 95%
    06:00 +17°C° 0.3 mm 5 m/s 737 mmHg 95%
    07:00 +17°C° 0.2 mm 6 m/s 738 mmHg 93%
    08:00 +16°C° 0.2 mm 7 m/s 738 mmHg 91%
    09:00 +16°C° 0.2 mm 8 m/s 738 mmHg 89%
    10:00 +15°C° 0 mm 8 m/s 739 mmHg 85%
    11:00 +15°C° 0 mm 7 m/s 739 mmHg 82%
    12:00 +14°C° 0 mm 7 m/s 740 mmHg 78%
    13:00 +15°C° 0 mm 7 m/s 740 mmHg 74%
    14:00 +15°C° 0 mm 7 m/s 740 mmHg 69%
    15:00 +16°C° 0 mm 7 m/s 741 mmHg 65%
    16:00 +15°C° 0 mm 7 m/s 741 mmHg 66%
    17:00 +15°C° 0 mm 6 m/s 741 mmHg 68%
    18:00 +14°C° 0 mm 6 m/s 741 mmHg 69%
    19:00 +13°C° 0 mm 6 m/s 742 mmHg 71%
    20:00 +10°C° 0 mm 5 m/s 742 mmHg 73%
    21:00 +9°C° 0 mm 5 m/s 742 mmHg 75%
    22:00 +8°C° 0 mm 5 m/s 743 mmHg 76%
    23:00 +7°C° 0 mm 4 m/s 743 mmHg 77%
    Arată mai mult